Regional Weather Roundup
Issued by NWS

Home | Current Version | Previous Version | Text Only | Print | Product List | Glossary On
Versions: 1 2 3 4 5 6 7 8 9 10 11 12 13 14 15 16 17 18 19 20 21 22 23 24 25 26 27 28 29 30 31 32 33 34 35 36 37 38 39 40 41 42 43 44 45 46 47 48
000
ASUS44 KBMX 250410
RWRAL

ALABAMA REGIONAL WEATHER ROUNDUP
NATIONAL WEATHER SERVICE BIRMINGHAM AL
1100 PM CDT FRI APR 24 2015

NOTE: "FAIR" INDICATES FEW OR NO CLOUDS BELOW 12,000 FEET
WITH NO SIGNIFICANT WEATHER AND/OR OBSTRUCTIONS TO VISIBILITY.

THE REMARK "TC" DENOTES TEMPERATURE IN DEGREES CELSIUS.

ALZ001>011-014-016>018-020-250500-
NORTH ALABAMA

CITY           SKY/WX    TMP DP  RH WIND       PRES   REMARKS
MUSCLE SHOALS  RAIN      59  52  77 NE5       29.90R
HUNTSVILLE     LGT RAIN  61  54  77 SE7       29.88F
DECATUR        LGT RAIN  58  55  90 E3        29.89F
HALEYVILLE       N/A     59  51  74 CALM      29.90F
GADSDEN        CLOUDY   N/A N/A N/A CALM      29.90F
$$

ALZ012-013-022-023-030>036-040>044-250500-
WEST CENTRAL ALABAMA

CITY           SKY/WX    TMP DP  RH WIND       PRES   REMARKS
TUSCALOOSA     CLOUDY    69  53  56 VRB3      29.87S
$$

ALZ015-024>027-033>036-040>044-250500-
CENTRAL ALABAMA

CITY           SKY/WX    TMP DP  RH WIND       PRES   REMARKS
BIRMINGHAM     LGT RAIN  67  50  54 CALM      29.90F
MONTGOMERY     MOCLDY    68  59  73 SE6       29.90F
SHELBY CO ARPT CLOUDY    68  55  63 VRB3      29.89F
MAXWELL AFB    CLOUDY    66  60  81 SE7       29.88F
GREENVILLE     FAIR      68  60  75 CALM      29.90F
$$

ALZ019-021-028-029-037-038-045>048-250500-
EAST CENTRAL ALABAMA

CITY           SKY/WX    TMP DP  RH WIND       PRES   REMARKS
ANNISTON       CLOUDY    66  51  58 NE3       29.92F
ALEXANDER CITY CLOUDY    65  56  72 CALM      29.92F
AUBURN         CLOUDY    66  46  48 E6        29.94F
$$

ALZ051>064-250500-
SOUTHWEST ALABAMA

CITY           SKY/WX    TMP DP  RH WIND       PRES   REMARKS
MOBILE         CLOUDY    73  71  93 SE12      29.86F
BROOKLEY FIELD CLOUDY    74  71  91 SE7       29.88F
EVERGREEN      PTCLDY    67  62  84 SE3       29.90F
$$

ALZ049-050-065>069-250500-
SOUTHEAST ALABAMA

CITY           SKY/WX    TMP DP  RH WIND       PRES   REMARKS
DOTHAN         PTCLDY    69  61  75 S6        29.96F
OZARK          PTCLDY    69  61  73 SE2       29.91F
TROY           PTCLDY    66  60  81 SE7       29.92F
EUFAULA        FAIR      65  62  90 CALM      29.92F
$$


USA.gov is the U.S. government's official web portal to all federal, state and local government web resources and services.